This demonstration page uses our WeatherBlox Daily Observations layout. Learn more.

Left ArrowRight Arrow

Hourly Observations for January 2, 2022

Temp ( °F °C ) Dew Point ( °F °C ) Humidity (%) Winds ( mph kmh ) Pressure ( in mb ) Visibility ( mi km ) Precip ( " mm )
12:53 am 00:53 Cloudy 22 -5.6 12 -11.1 66 66 NNW 21 33 30.16 1021 10 16 0.00 0.00
5:53 am 05:53 Cloudy 18 -7.8 8 -13.3 65 65 NW 23 37 30.30 1026 10 16 0.00 0.00
6:53 am 06:53 Mostly Cloudy 18 -7.8 9 -12.8 68 68 NNW 22 35 30.33 1027 10 16 0.00 0.00
7:53 am 07:53 Mostly Cloudy 18 -7.8 9 -12.8 68 68 NNW 20 31 30.35 1028 10 16 0.00 0.00
8:53 am 08:53 Mostly Cloudy 19 -7.2 10 -12.2 68 68 NNW 20 31 30.39 1029 10 16 0.00 0.00
9:53 am 09:53 Mostly Cloudy 22 -5.6 11 -11.7 63 63 NNW 20 31 30.42 1030 10 16 0.00 0.00
10:53 am 10:53 Partly Cloudy 26 -3.3 14 -10 60 60 NNW 21 33 30.46 1032 10 16 0.00 0.00
11:53 am 11:53 Mostly Sunny 30 -1.1 16 -8.9 56 56 NW 18 30 30.46 1031 10 16 0.00 0.00
12:53 pm 12:53 Mostly Sunny 35 1.7 17 -8.3 48 48 NNW 20 31 30.44 1031 10 16 0.00 0.00
1:53 pm 13:53 Mostly Sunny 37 2.8 18 -7.8 46 46 NNW 20 31 30.42 1030 10 16 0.00 0.00
2:53 pm 14:53 Sunny 38 3.3 18 -7.8 44 44 NW 17 28 30.43 1030 10 16 0.00 0.00
3:53 pm 15:53 Sunny 38 3.3 19 -7.2 46 46 NNW 12 19 30.44 1031 10 16 0.00 0.00
4:53 pm 16:53 Sunny 37 2.8 19 -7.2 48 48 NNW 15 24 30.44 1031 10 16 0.00 0.00
5:53 pm 17:53 Clear 35 1.7 18 -7.8 50 50 NNW 9 15 30.46 1031 10 16 0.00 0.00
6:53 pm 18:53 Clear 34 1.1 17 -8.3 50 50 VRB 7 11 30.47 1032 10 16 0.00 0.00
7:53 pm 19:53 Clear 34 1.1 18 -7.8 52 52 NNW 8 13 30.48 1032 10 16 0.00 0.00
8:53 pm 20:53 Clear 32 0 19 -7.2 59 59 VRB 6 9 30.47 1032 10 16 0.00 0.00
9:53 pm 21:53 Clear 32 0 19 -7.2 59 59 N 6 9 30.48 1032 10 16 0.00 0.00
10:53 pm 22:53 Clear 32 0 19 -7.2 59 59 Calm 30.49 1033 10 16 0.00 0.00
11:53 pm 23:53 Clear 31 -0.6 20 -6.7 64 64 Calm 30.47 1032 10 16 0.00 0.00

Powered by AerisWeather